CW5761 Weather Reports


time (UTC)temp
C
wind
direction
speed
KPH
gust
KPH
rain 1hr
cm
rain 24hr
cm
rain mn
cm
humidity
%
barometer
mb
20260504185004 22 326 0.0 0.0 0.00 0.00 0.00 40 1010.6
20260504184005 22 344 0.0 0.0 0.00 0.00 0.00 38 1010.6
20260504183008 22 130 4.8 0.0 0.00 0.00 0.00 39 1010.6
20260504182008 22 99 0.0 0.0 0.00 0.00 0.00 38 1010.8
20260504181004 22 100 0.0 0.0 0.00 0.00 0.00 39 1011.2
20260504175005 22 163 0.0 0.0 0.00 0.00 0.00 40 1011.3
20260504174008 22 63 0.0 0.0 0.00 0.00 0.00 39 1011.6
20260504173003 21 119 3.2 0.0 0.00 0.00 0.00 42 1011.6
20260504172228 21 332 0.0 0.0 0.00 0.00 0.00 42 1011.7
20260504141004 17 125 0.0 0.0 0.00 0.00 0.00 58 1013.4
20260504082004 3 347 0.0 0.0 0.00 0.00 0.00 87 1014.6
20260504081008 3 347 0.0 0.0 0.00 0.00 0.00 87 1014.6
20260504050223 5 347 0.0 0.0 0.00 0.00 0.00 77 1014.4
20260504044004 6 347 0.0 0.0 0.00 0.00 0.00 77 1014.3
20260504043004 6 347 0.0 0.0 0.00 0.00 0.00 78 1014.3
20260504041133 6 347 0.0 0.0 0.00 0.00 0.00 78 1013.9
20260504034008 6 347 0.0 0.0 0.00 0.00 0.00 76 1013.8
20260504033004 6 347 0.0 0.0 0.00 0.00 0.00 76 1013.8
20260504032008 6 347 0.0 0.0 0.00 0.00 0.00 75 1013.7
20260504030005 6 347 0.0 0.0 0.00 0.00 0.00 74 1013.6
20260504025459 6 347 0.0 0.0 0.00 0.00 0.00 73 1013.6
20260504024919 7 347 0.0 0.0 0.00 0.00 0.00 73 1013.6
20260504013004 9 347 0.0 0.0 0.00 0.00 0.00 63 1013.4
20260504012003 10 347 0.0 0.0 0.00 0.00 0.00 60 1013.2
20260504011003 10 347 0.0 0.0 0.00 0.00 0.00 57 1012.9
20260504010313 11 347 0.0 0.0 0.00 0.00 0.00 56 1012.9
20260504004004 11 347 0.0 0.0 0.00 0.00 0.00 52 1012.6
20260504003003 12 347 0.0 0.0 0.00 0.00 0.00 49 1012.6
20260504002628 12 347 0.0 0.0 0.00 0.00 0.00 49 1012.3
20260503234003 14 347 0.0 0.0 0.00 0.00 0.00 42 1011.9
20260503232004 15 340 0.0 0.0 0.00 0.00 0.00 41 1011.9
20260503231008 15 338 0.0 0.0 0.00 0.00 0.00 37 1011.7
20260503230059 15 329 0.0 0.0 0.00 0.00 0.00 37 1011.7
20260503224004 15 344 0.0 0.0 0.00 0.00 0.00 37 1011.7
20260503223009 16 343 0.0 0.0 0.00 0.00 0.00 34 1011.7
20260503221008 16 9 0.0 0.0 0.00 0.00 0.00 33 1011.7
20260503220005 16 327 0.0 0.0 0.00 0.00 0.00 35 1011.7
20260503215348 16 344 6.4 0.0 0.00 0.00 0.00 34 1011.7
20260503214008 16 337 9.7 0.0 0.00 0.00 0.00 35 1011.7
20260503213003 16 342 0.0 0.0 0.00 0.00 0.00 34 1011.7
20260503212008 16 336 8.0 0.0 0.00 0.00 0.00 34 1011.6
20260503211004 15 331 3.2 0.0 0.00 0.00 0.00 33 1011.7
20260503210003 15 351 0.0 0.0 0.00 0.00 0.00 37 1011.7
20260503205748 15 350 8.0 0.0 0.00 0.00 0.00 36 1011.8
20260503204009 15 351 3.2 0.0 0.00 0.00 0.00 36 1011.9
20260503203003 15 337 0.0 0.0 0.00 0.00 0.00 38 1011.9
20260503202003 15 344 4.8 0.0 0.00 0.00 0.00 35 1012.0